Theta_e
317 316 320 325 331 332 333 336 336 343 344 344 345 348 348 347 348 355 355 353 349 343 324 325 333 335 337 338 338 339 339 336 328 325 324 323 323 323 324 329 332 334 336 338 338 335 335 336 336
316 318 324 327 331 336 332 332 337 345 347 345 346 346 347 348 346 355 355 352 349 343 325 325 331 335 335 335 334 332 332 328 325 324 323 322 323 324 325 329 332 335 337 339 338 336 334 335 335
315 321 326 328 333 335 333 330 331 339 344 346 347 346 347 349 348 355 355 351 349 344 333 324 328 334 334 331 326 325 325 324 325 324 323 322 322 324 325 327 331 334 336 338 338 337 335 335 335
320 322 323 327 332 332 330 328 327 335 346 346 347 348 346 347 353 354 355 350 349 344 340 323 325 329 327 324 324 323 324 324 324 324 323 323 322 324 325 326 329 332 334 337 338 337 337 337 337
321 323 324 326 328 330 329 326 325 330 346 346 347 348 348 348 352 353 353 351 347 344 342 323 324 325 324 324 324 324 324 324 324 323 323 323 323 323 324 325 327 330 334 335 338 338 337 337 338
322 323 323 324 326 326 326 325 325 326 340 346 347 346 345 347 351 354 355 352 347 343 343 326 323 324 324 324 324 324 324 324 324 323 323 323 323 323 323 324 326 327 331 334 335 338 338 338 338
325 324 324 323 325 326 326 327 328 327 332 343 346 346 347 348 353 354 355 355 349 344 343 330 324 324 325 324 324 324 324 324 324 324 323 323 323 323 323 323 325 326 328 332 334 337 339 338 338
323 324 323 323 325 325 325 327 330 340 330 342 344 344 346 348 353 356 355 352 349 345 342 340 334 326 325 325 325 324 324 324 324 324 324 324 324 323 323 323 323 325 326 328 331 336 338 339 339
321 323 323 323 324 325 326 327 326 333 340 338 342 348 350 350 352 356 356 355 349 346 343 342 341 338 336 336 325 325 326 327 327 327 327 325 328 325 324 323 324 323 324 327 329 333 336 339 339
322 323 323 325 324 325 325 326 325 331 343 341 345 351 350 351 350 354 353 354 349 346 344 342 342 341 339 340 335 326 327 329 330 331 332 332 339 340 338 333 323 322 323 323 327 330 334 338 345
322 323 323 323 323 322 324 325 324 332 340 340 341 346 351 350 351 352 351 350 346 344 344 344 345 345 343 342 341 337 339 339 335 334 335 337 342 338 333 338 327 327 323 328 328 328 340 343 345
322 321 321 322 321 322 324 324 325 332 338 339 341 345 351 349 351 353 350 347 345 343 344 345 347 345 345 344 343 342 342 342 343 339 334 340 337 341 341 340 339 339 337 336 336 337 341 343 343
321 321 320 321 322 323 323 324 325 331 337 325 325 345 351 349 350 351 349 349 347 345 344 344 345 339 336 339 345 344 344 343 344 343 337 336 341 343 342 341 340 338 338 337 336 335 336 338 340
322 322 322 322 322 323 324 324 323 326 326 324 329 336 348 348 351 351 349 350 350 347 345 344 344 333 327 331 345 345 344 344 341 343 341 333 338 342 342 342 341 339 337 339 340 341 340 339 336
322 323 323 323 322 324 323 324 323 324 323 324 324 327 335 348 349 349 350 350 351 348 347 346 338 331 326 325 328 341 344 344 345 342 335 333 333 336 335 342 342 341 339 343 344 345 345 343 339
324 324 324 324 323 322 323 323 325 324 323 324 324 325 327 333 347 347 345 348 351 351 349 348 346 344 336 328 331 341 344 343 345 344 338 333 333 333 333 342 343 341 340 341 343 345 346 344 342
324 323 324 324 323 324 324 323 325 324 324 324 324 324 326 327 339 348 350 347 348 352 353 347 346 348 348 341 337 335 344 335 345 344 343 336 336 335 332 340 343 338 338 341 342 344 346 345 344
323 323 323 323 324 325 325 325 326 324 324 324 324 325 324 324 325 327 329 338 348 349 348 347 345 340 347 348 344 345 344 336 341 339 339 336 338 339 333 341 343 339 339 343 344 344 344 345 344
323 324 324 324 325 326 326 326 326 327 326 327 327 327 327 328 328 329 330 322 328 341 345 343 342 343 341 345 348 347 345 342 342 344 342 339 339 341 339 341 344 340 343 344 344 344 343 342 343
323 324 325 325 325 326 326 326 327 328 328 328 327 327 328 328 329 331 332 326 323 324 333 338 338 337 336 338 345 347 346 344 344 345 341 341 340 342 340 342 345 340 342 344 344 343 341 341 343
324 325 325 326 325 325 326 327 329 328 327 327 327 326 327 327 328 330 331 332 329 324 321 322 328 332 331 330 339 338 346 345 345 345 347 340 341 342 338 331 338 338 336 341 343 342 342 341 341
325 325 325 325 326 326 326 326 328 329 329 328 327 326 326 326 327 328 329 329 331 333 328 323 321 321 329 326 329 333 334 345 343 347 344 345 332 339 323 325 332 334 339 342 341 342 343 342 341
324 324 325 326 326 327 326 327 329 329 330 328 325 323 323 323 324 326 326 327 328 329 333 332 325 323 321 340 331 344 342 346 345 344 346 342 330 331 321 330 331 330 327 339 341 343 338 342 334
324 324 325 326 326 328 327 327 327 329 329 326 323 322 322 322 322 323 324 325 325 326 328 332 336 330 323 324 344 340 346 348 345 346 347 348 344 331 322 326 328 328 327 337 342 342 339 334 333
324 326 328 328 327 327 326 327 327 328 327 325 322 321 320 321 322 322 323 323 324 325 326 326 329 337 339 339 340 343 345 348 350 350 349 345 341 339 326 322 326 325 324 333 343 342 338 330 336
326 326 327 329 328 327 327 328 329 325 321 320 320 319 319 319 319 320 321 322 323 324 325 326 326 330 336 339 341 341 343 344 348 350 350 346 341 337 334 321 324 323 319 329 340 341 336 338 336
325 326 326 327 327 328 328 328 325 323 321 319 319 318 318 318 317 318 318 321 322 323 325 326 327 327 328 334 339 342 342 344 345 348 350 349 346 337 337 322 325 323 317 318 334 336 333 337 337
324 324 327 327 328 328 328 326 328 325 322 320 319 318 317 316 316 316 316 318 319 322 323 325 326 326 326 326 329 333 337 342 344 344 346 347 347 342 337 331 326 325 322 317 318 335 337 338 335
322 324 324 325 327 329 328 327 326 326 323 321 318 316 316 315 315 315 316 316 316 317 319 322 324 324 325 325 326 323 321 328 334 343 344 342 344 345 341 339 332 332 327 324 318 325 333 336 336
318 321 322 324 328 327 326 326 322 323 319 318 316 315 315 314 314 315 315 316 316 315 316 317 319 321 323 324 326 326 326 325 324 329 336 344 343 344 344 341 340 340 340 335 333 329 332 336 337
Wind_Speed
4 2 4 4 7 7 4 5 2 4 5 3 2 2 3 4 6 4 6 14 21 22 24 24 22 20 19 18 17 16 16 14 12 12 11 11 10 10 11 11 11 11 11 10 10 11 11 13 16
4 3 3 6 8 9 8 3 3 4 5 5 5 5 1 2 2 3 12 18 22 22 23 25 24 22 19 17 16 16 16 14 12 11 11 10 10 9 10 11 10 10 10 10 9 10 11 12 14
6 5 7 4 7 8 6 4 3 1 3 5 3 4 3 3 2 7 10 20 21 20 22 24 23 21 20 18 16 16 15 14 13 12 11 10 10 9 9 9 10 9 9 9 8 9 10 11 12
4 4 6 9 11 5 3 3 5 3 2 5 4 3 2 3 6 5 19 21 22 20 20 23 24 22 20 18 17 16 15 13 13 12 10 9 9 8 7 7 7 7 8 8 8 8 8 9 10
7 6 7 12 8 2 4 4 5 7 2 6 8 4 1 4 7 14 17 20 21 20 18 23 24 22 20 18 17 16 15 13 12 10 9 8 8 7 6 5 5 5 6 7 6 6 7 7 7
10 6 7 11 12 6 4 5 10 10 9 4 8 4 3 7 12 15 16 19 20 20 20 22 22 21 20 19 17 16 14 12 11 10 9 8 7 7 6 6 5 4 4 4 5 4 5 5 4
14 8 10 7 10 7 2 6 5 6 9 9 1 4 4 11 13 16 16 18 20 20 19 22 23 22 20 19 17 15 14 12 11 10 9 8 7 6 6 6 5 4 3 4 4 5 4 3 2
10 8 7 10 9 6 2 3 3 6 6 4 5 1 8 12 15 15 18 18 20 20 20 20 21 23 22 20 18 16 14 12 11 10 9 8 8 7 7 6 5 5 4 4 4 5 5 4 3
6 7 10 12 8 6 1 3 0 3 5 9 5 1 3 13 18 17 18 18 20 19 19 19 19 20 19 18 20 18 16 15 13 11 10 10 8 8 7 8 7 7 6 6 6 6 6 6 6
11 9 9 3 0 3 5 4 5 5 7 7 8 3 5 14 20 20 20 22 22 21 20 20 19 19 19 18 19 21 19 18 16 14 14 11 9 9 8 10 9 9 8 8 8 8 8 7 6
9 10 3 6 5 7 7 7 4 6 9 8 11 7 9 14 19 19 19 20 22 22 21 22 22 22 20 18 18 18 17 17 18 18 16 13 11 10 10 7 9 9 9 6 9 8 7 7 8
9 7 6 3 5 7 7 7 6 7 1 4 5 5 11 15 19 18 17 18 20 21 20 21 21 22 22 18 19 18 17 17 16 18 20 16 14 12 10 8 9 8 8 9 10 9 9 11 10
11 6 7 8 8 8 10 10 5 10 7 2 0 5 10 14 17 15 15 16 18 20 21 21 21 23 25 25 18 19 19 18 16 16 19 17 14 12 11 10 9 9 10 9 10 10 10 9 10
6 5 7 8 11 8 9 9 5 12 9 5 2 7 8 13 19 15 15 17 19 19 20 20 21 23 25 26 22 19 19 18 19 18 18 19 17 15 11 11 9 10 10 10 10 9 8 9 10
6 10 11 13 14 10 9 11 10 11 7 11 9 9 10 12 18 17 14 17 18 20 20 21 22 23 24 25 24 20 18 18 17 18 21 20 19 18 14 11 10 11 11 11 11 10 10 9 10
10 7 11 12 13 10 10 15 15 13 11 14 13 11 10 15 19 17 15 14 15 16 18 19 19 20 22 24 22 20 18 18 18 17 19 20 20 19 16 13 11 11 12 12 12 13 12 11 10
11 11 9 8 11 7 14 13 9 7 9 14 15 16 13 8 9 10 13 14 14 16 17 19 22 21 20 22 22 22 19 21 18 18 18 21 18 19 18 15 12 15 13 12 12 13 14 13 12
6 12 8 11 12 10 14 13 7 2 5 5 6 12 8 4 1 3 9 14 15 16 18 20 21 24 24 21 22 19 20 23 21 20 21 22 20 20 20 16 16 16 14 14 13 13 14 15 14
9 7 9 8 8 9 12 12 8 3 6 7 6 7 6 4 4 5 5 7 12 18 22 21 24 24 24 25 22 22 24 23 22 20 21 23 22 21 21 16 18 18 15 16 15 13 15 14 12
9 11 12 10 8 11 12 10 6 6 8 8 8 11 10 9 10 13 11 6 7 15 20 21 25 25 27 26 25 22 20 22 21 20 26 24 25 23 20 18 16 17 16 17 15 15 13 11 13
13 12 9 11 10 14 10 12 11 8 10 10 10 11 12 12 13 15 16 15 10 8 16 22 26 27 30 29 25 28 25 23 22 23 23 27 25 24 21 19 17 17 17 16 15 16 15 12 11
14 12 11 8 12 14 17 12 20 14 9 8 9 8 10 11 13 13 15 18 18 15 9 12 24 29 28 31 29 32 34 28 27 24 22 21 23 24 21 20 20 19 16 17 16 16 15 14 10
14 5 11 11 12 15 14 12 13 16 14 9 9 9 9 10 11 12 14 15 17 18 17 15 8 16 27 26 32 29 33 29 24 23 23 24 26 22 20 21 21 20 20 18 17 16 19 14 13
6 8 11 11 12 14 19 15 14 18 16 10 9 8 9 9 10 12 13 13 16 18 20 19 18 13 10 20 24 31 32 30 26 25 24 21 21 24 23 22 21 20 19 18 16 16 15 16 14
12 14 12 14 14 15 18 18 8 10 11 11 8 8 9 9 11 13 15 16 17 19 21 20 22 19 14 9 15 22 27 28 27 25 24 22 22 21 24 24 22 19 20 19 18 17 16 19 14
19 19 15 20 15 16 8 14 7 11 11 9 8 7 7 8 10 12 15 16 17 18 18 19 20 20 18 12 10 14 20 24 26 27 27 23 25 24 25 25 23 19 20 23 21 20 19 17 15
19 13 14 18 20 10 10 3 6 11 11 9 7 6 6 8 10 12 13 15 16 16 16 17 16 16 17 17 12 9 11 16 22 24 23 27 24 24 25 27 26 23 20 23 24 22 21 18 17
10 5 9 11 20 19 14 16 9 19 15 9 7 4 5 6 9 11 12 14 14 14 14 15 15 15 14 14 14 12 7 10 14 18 21 21 20 25 23 28 30 28 25 25 27 23 22 21 19
12 8 6 8 7 8 13 10 9 16 14 10 5 2 4 6 8 10 11 12 13 13 14 14 14 14 14 14 13 12 11 9 10 11 15 21 22 22 26 26 29 31 31 29 31 29 26 26 23
17 19 13 7 9 8 9 7 6 11 10 6 3 0 4 6 7 8 9 11 12 14 14 14 15 15 15 14 14 13 12 12 10 6 14 14 16 21 24 26 26 26 28 31 32 33 31 29 28
Wind_Direction
207 225 269 269 247 233 124 105 334 141 174 113 169 183 343 12 348 20 145 153 160 161 169 169 169 165 161 161 161 163 164 165 159 150 142 136 131 128 126 125 124 124 121 114 104 94 93 76 67
189 184 257 273 256 212 121 110 74 56 65 147 159 200 292 102 31 90 147 160 159 162 171 170 171 169 166 167 167 168 171 168 161 154 147 142 137 135 131 130 130 128 123 122 111 97 93 82 70
167 184 253 254 253 246 126 107 29 27 213 212 199 224 349 69 85 139 162 155 160 160 167 172 170 171 172 170 171 172 172 169 164 159 153 147 143 141 137 135 135 134 131 131 123 105 91 79 69
160 201 237 246 221 236 314 53 354 254 168 212 227 180 96 114 139 138 150 157 164 164 166 172 171 173 173 172 171 172 174 171 167 163 157 151 151 148 144 140 139 143 140 140 133 120 103 84 70
186 230 231 235 215 261 261 313 316 274 156 178 196 92 60 149 135 141 153 161 164 168 168 174 174 173 175 176 174 176 177 176 171 169 165 160 157 157 152 149 148 156 155 151 143 128 115 98 79
207 259 229 223 205 197 273 304 292 262 207 143 196 247 67 155 146 156 156 162 169 170 171 179 179 175 179 178 181 181 181 178 176 174 173 172 171 170 166 165 174 174 179 165 159 154 138 119 93
255 227 251 251 184 203 321 322 254 267 219 191 139 250 108 157 165 161 162 169 173 172 171 182 182 180 182 183 186 185 185 183 182 179 182 179 180 179 182 184 191 195 198 211 182 181 176 155 136
247 261 221 216 185 167 46 296 288 245 226 151 200 284 139 177 169 166 169 169 174 176 179 177 180 184 186 188 189 190 190 191 191 188 186 191 193 193 198 200 206 215 221 229 233 211 213 213 215
221 239 217 192 197 136 127 309 56 258 215 209 186 184 130 167 168 164 168 174 177 180 184 181 183 186 184 191 193 193 195 200 198 198 199 202 202 208 210 212 213 217 225 237 241 237 225 230 238
226 242 224 60 152 240 295 293 319 235 182 186 192 170 150 161 170 174 176 178 180 183 187 188 187 191 187 192 198 198 202 206 206 208 213 206 200 202 197 225 224 224 225 231 241 242 240 230 261
198 249 84 202 244 294 294 271 308 245 194 191 205 173 175 173 181 186 185 186 186 187 188 191 192 194 192 195 198 198 203 205 210 213 219 206 215 227 212 224 236 232 233 238 248 246 234 243 215
229 234 233 227 266 279 284 316 245 237 115 167 209 235 188 186 189 194 193 190 189 190 192 192 200 203 199 202 205 205 203 207 208 216 225 217 220 224 211 217 220 218 230 219 223 236 227 224 240
233 220 233 238 251 267 284 261 272 220 194 184 10 191 194 191 193 194 197 198 196 196 196 197 201 209 210 208 212 207 208 211 212 213 227 225 220 220 223 224 221 227 226 231 232 231 238 245 239
169 225 239 241 236 230 256 237 231 213 198 197 223 211 211 199 192 196 202 203 203 202 202 201 206 214 214 214 210 214 217 217 218 220 223 228 228 227 222 230 231 232 227 227 227 236 241 249 245
218 245 219 227 228 230 233 229 222 225 219 228 218 216 222 216 206 214 214 210 209 207 204 208 215 221 220 222 222 220 222 219 220 223 231 232 233 236 229 228 229 233 230 222 230 234 246 250 255
237 238 247 204 205 205 224 237 194 223 224 231 234 232 224 225 228 229 228 226 223 218 219 217 219 223 230 227 224 222 222 221 221 222 231 236 238 236 243 231 234 232 228 234 235 242 241 250 252
210 250 216 162 208 179 211 233 210 195 231 245 252 242 241 250 220 242 245 244 236 226 226 238 233 230 233 232 227 228 225 225 223 224 226 240 242 244 243 235 236 245 229 231 240 239 242 247 246
237 233 221 231 175 211 195 228 149 239 234 229 244 229 224 234 204 287 251 238 234 234 237 241 240 239 235 235 239 231 229 233 227 234 234 241 245 246 243 236 241 251 228 236 243 242 244 233 247
268 262 249 225 169 229 209 207 121 106 127 122 125 130 126 80 36 17 345 275 244 247 252 254 255 246 242 244 234 233 231 231 228 228 236 241 243 245 243 236 247 247 230 233 248 247 238 236 236
235 236 241 237 200 222 184 186 139 117 98 102 107 89 81 69 41 27 22 348 275 247 245 252 254 254 255 249 244 235 234 235 232 230 239 249 245 244 251 245 235 242 236 238 238 230 222 229 234
226 244 237 260 180 216 211 168 164 134 120 105 90 84 72 63 53 40 36 28 6 298 258 247 244 248 251 250 244 244 231 231 229 225 232 244 245 244 250 251 237 242 243 241 234 223 220 235 227
244 212 243 238 216 210 209 226 185 165 148 128 112 89 78 69 60 47 39 35 30 19 350 276 256 250 246 246 240 245 239 227 230 228 227 232 242 240 244 245 240 246 242 230 228 222 225 215 228
246 224 236 234 235 249 197 246 176 174 166 144 110 86 68 58 55 50 44 39 32 26 21 10 328 266 249 240 240 236 240 235 235 230 226 226 239 235 241 233 236 245 244 229 217 222 217 223 208
220 221 234 244 246 231 241 213 211 188 168 146 120 87 64 49 41 38 36 34 30 27 24 19 13 358 293 249 242 239 231 238 231 233 224 223 225 228 234 228 237 244 236 221 215 212 208 194 207
229 235 236 225 226 237 232 226 223 90 123 140 132 101 70 49 36 26 23 21 21 22 21 21 21 16 2 315 259 250 246 240 235 227 230 224 223 220 225 223 231 239 228 221 207 207 203 205 208
223 230 242 249 243 242 186 226 144 124 124 137 128 95 68 47 34 25 13 12 12 13 14 15 17 18 14 356 308 268 252 243 241 236 230 232 228 228 222 221 225 230 226 222 212 208 203 208 208
242 242 261 272 269 256 208 146 146 159 157 158 132 108 66 37 28 14 9 7 6 5 5 9 10 11 12 14 5 326 278 251 240 237 238 231 224 225 222 223 221 223 221 217 210 204 210 208 208
272 346 223 228 252 250 257 233 227 181 174 165 156 111 56 22 8 4 360 356 357 357 357 357 359 2 4 5 5 7 337 281 259 245 236 234 226 220 221 226 223 224 222 219 215 210 214 210 211
324 258 265 297 261 270 258 232 337 166 165 169 157 111 40 7 354 349 350 349 348 344 345 348 353 352 348 356 2 359 350 348 265 257 253 248 240 229 221 222 223 224 225 222 222 215 212 214 212
303 295 306 289 250 265 281 296 108 124 137 162 170 136 4 343 341 338 337 341 344 343 341 340 342 345 345 348 344 353 359 349 328 301 251 241 242 236 229 225 225 223 223 223 223 223 215 213 211